PDT,Max TemperatureF,Mean TemperatureF,Min TemperatureF,Max Dew PointF,MeanDew PointF,Min DewpointF,Max Humidity, Mean Humidity, Min Humidity, Max Sea Level PressureIn, Mean Sea Level PressureIn, Min Sea Level PressureIn, Max VisibilityMiles, Mean VisibilityMiles, Min VisibilityMiles, Max Wind SpeedMPH, Mean Wind SpeedMPH, Max Gust SpeedMPH,PrecipitationIn, CloudCover, Events, WindDirDegrees
2013-9-1,94,71,48,52,41,19,80,44,7,29.88,29.81,29.70,10,10,10,18,6,30,0.00,0,,262
2013-9-2,87,68,49,52,48,39,83,52,20,29.90,29.84,29.76,10,10,10,20,5,23,0.00,0,,294
2013-9-3,84,66,48,51,47,33,89,53,17,29.97,29.92,29.87,10,10,10,21,7,25,0.00,0,,213
2013-9-4,87,67,47,51,45,33,89,53,17,30.01,29.96,29.88,10,10,10,23,7,29,0.00,0,,249
2013-9-5,75,60,45,49,45,39,93,69,44,30.07,29.96,29.89,10,10,4,35,5,41,0.00,0,Thunderstorm,246
2013-9-6,70,58,45,49,45,41,83,62,40,30.14,30.10,30.04,10,10,10,18,6,23,0.02,3,Rain,272
2013-9-7,81,61,40,49,44,38,96,61,26,30.13,30.05,29.96,10,10,10,16,6,20,0.00,0,,356
2013-9-8,77,61,45,49,45,39,86,59,31,30.08,30.05,30.03,10,10,10,18,5,22,0.00,0,,316
2013-9-9,86,64,42,44,40,37,76,48,20,30.06,29.99,29.93,10,10,10,16,4,21,0.00,0,,67
2013-9-10,87,66,44,44,41,36,70,45,19,30.00,29.94,29.88,10,10,10,17,7,23,0.00,0,,320
2013-9-11,90,67,44,45,43,38,76,48,19,30.04,29.98,29.93,10,10,10,16,5,20,0.00,0,,336
2013-9-12,92,69,46,46,42,38,76,46,16,30.01,29.94,29.87,10,10,10,15,4,18,0.00,0,,336
2013-9-13,85,70,55,45,41,38,61,42,22,29.92,29.87,29.79,10,10,10,14,4,17,0.00,0,,291
2013-9-14,91,70,48,49,44,39,77,47,17,29.86,29.79,29.71,10,10,10,16,5,21,0.00,0,,28
2013-9-15,92,72,52,49,43,28,71,41,10,29.83,29.70,29.60,10,10,10,25,7,31,0.00,1,,263
2013-9-16,72,57,42,45,43,40,83,59,35,29.93,29.89,29.83,10,10,10,16,5,21,0.00,0,,342
2013-9-17,62,56,49,47,43,39,80,68,55,29.98,29.86,29.81,10,10,10,26,9,31,0.08,5,Rain,288
2013-9-18,67,53,38,39,36,30,83,55,26,30.09,30.05,29.99,10,10,10,16,5,21,0.00,3,,298
2013-9-19,81,55,28,37,31,22,89,51,12,30.07,29.95,29.81,10,10,10,16,6,23,0.00,0,,143
2013-9-20,80,58,35,47,35,23,76,45,13,29.82,29.70,29.59,10,10,10,24,8,31,0.02,2,Rain,202
2013-9-21,65,54,43,44,40,36,89,62,34,29.78,29.71,29.65,10,10,10,15,6,22,0.02,4,Rain,226
2013-9-22,64,49,33,49,39,34,100,70,39,29.85,29.80,29.74,10,10,10,25,9,35,0.04,4,Rain,191
2013-9-23,65,52,38,42,39,35,86,65,43,29.99,29.95,29.86,10,10,10,18,7,23,0.00,2,,43
2013-9-24,55,47,39,45,42,37,93,74,54,29.95,29.89,29.84,10,8,2,20,5,24,0.23,8,Rain,326
2013-9-25,53,44,34,40,37,34,100,77,54,29.99,29.89,29.82,10,10,10,23,4,30,0.05,7,Rain,295
2013-9-26,58,44,30,37,34,28,92,68,43,30.17,30.07,30.00,10,10,10,18,5,23,T,3,Rain,335
2013-9-27,61,46,31,45,34,23,89,56,23,30.19,30.10,29.98,10,10,10,13,6,17,0.02,5,Rain,175
2013-9-28,65,55,45,48,44,40,93,68,43,29.96,29.76,29.59,10,9,2,32,16,44,0.31,6,Rain,200
2013-9-29,55,49,42,48,41,35,92,74,56,29.75,29.68,29.51,10,10,2,25,14,36,0.20,6,Rain,189
2013-9-30,58,47,35,46,35,31,92,66,40,30.01,29.87,29.60,10,10,5,24,10,31,0.02,4,Rain,233